カタログに戻る

STARLINK-11250

運用中通信VLEO
NORAD 60910·PAYLOAD·🇺🇸 United States

打ち上げ Aug 31, 2024 から Cape Canaveral Space Force Station

Loading…

次のパス (今後24時間)

TLE

最新Source: CelesTrak SupGP

元期: Sep 14, 2026, 21:10 UTC

1 60910C 24154H   26257.88243056  .00016790  00000+0  13832-3 0  2579
2 60910  53.1572 278.6910 0001065  98.5822  64.0841 15.69697720    16

AllMySatでSTARLINK-11250をリアルタイム追跡

Download on the App Store